Stations météo

réclame
Mon MeteoGroup
Rotterdam Zestienhoven, Pays-Bas (6344): Température de l'air & dewpoint: 17.04.2018 03:00:00 - 23.04.2018 03:00:00 (CEST)Rotterdam Zestienhoven, Pays-Bas (6344): Température de l'air 5cm: 17.04.2018 03:00:00 - 23.04.2018 03:00:00 (CEST)Rotterdam Zestienhoven, Pays-Bas (6344): Vitesse du vent & gusts: 17.04.2018 03:00:00 - 23.04.2018 03:00:00 (CEST)Rotterdam Zestienhoven, Pays-Bas (6344): Direction du vent: 17.04.2018 03:00:00 - 23.04.2018 03:00:00 (CEST)Rotterdam Zestienhoven, Pays-Bas (6344): reduced air pressure: 17.04.2018 03:00:00 - 23.04.2018 03:00:00 (CEST)Rotterdam Zestienhoven, Pays-Bas (6344): visibility: 17.04.2018 03:00:00 - 23.04.2018 03:00:00 (CEST)Rotterdam Zestienhoven, Pays-Bas (6344): Quantités de précipitations: 17.04.2018 03:00:00 - 23.04.2018 03:00:00 (CEST)
Date & Time tt [°C] td [°C] tt 5cm [°C] ff [km/h] ff [knt] fx [km/h] fx [knt] dd ppp [hPa] vv [km] rr [mm]
23.04.2018 03:00:00 11,7 8,9 10,9 15 8 25 14 WSW 1011,6 10 0,0
23.04.2018 02:00:00 12,9 8,2 12,1 16 9 32 18 W 1011,4 10 0,0
23.04.2018 01:00:00 14,3 7,5 13,2 22 12 32 18 WSW 1011,0 10 0,0
23.04.2018 00:00:00 15,5 9,0 14,6 24 13 36 19 SW 1010,6 10 0,0
22.04.2018 23:00:00 16,3 9,0 15,0 21 11 40 21 SW 1010,0 10 0,0
22.04.2018 22:00:00 16,8 9,2 15,5 26 14 40 21 SW 1010,0 10 0,0
22.04.2018 21:00:00 16,9 8,6 15,8 28 15 50 27 WSW 1009,6 10 0,0
22.04.2018 20:00:00 17,8 8,6 16,9 18 10 40 21 WSW 1009,1 25 0,0
22.04.2018 19:00:00 20,1 9,2 20,8 14 8 36 19 W 1009,1 30 0,0
22.04.2018 18:00:00 21,4 14,9 23,4 18 10 29 16 W 1009,1 10 0,0
22.04.2018 17:00:00 22,1 13,3 23,7 14 8 36 19 W 1009,0 17 0,0
22.04.2018 16:00:00 23,8 14,2 26,0 21 11 36 19 W 1009,2 10 0,0
22.04.2018 15:00:00 24,9 14,0 26,7 16 9 32 18 SSW 1009,2 10 0,0
22.04.2018 14:00:00 24,8 13,8 27,8 16 9 25 14 S 1009,4 10 0,0
22.04.2018 13:00:00 23,4 13,9 26,2 9 5 18 10 SSE 1010,0 9 0,0
22.04.2018 12:00:00 18,2 13,4 17,3 15 8 25 14 SSE 1011,3 10 0,0
22.04.2018 11:00:00 19,3 12,5 21,6 5 3 14 8 SE 1011,6 10 0,0
22.04.2018 10:00:00 18,4 11,3 19,3 11 6 18 10 SSE 1011,8 10 0,0
22.04.2018 09:00:00 15,9 10,3 15,1 8 4 14 8 SE 1012,4 10 0,0
22.04.2018 08:00:00 13,7 9,8 11,9 5 3 11 6 E 1013,4 10 0,0
22.04.2018 07:00:00 12,0 8,2 8,9 7 4 11 6 ESE 1013,6 22 0,0
22.04.2018 06:00:00 11,8 8,3 9,4 5 3 11 6 ESE 1013,8 10 0,0
22.04.2018 05:00:00 12,7 7,9 9,7 7 4 14 8 E 1014,5 28 0,0
22.04.2018 04:00:00 13,0 7,9 9,5 11 6 14 8 E 1015,5 34 0,0
22.04.2018 03:00:00 13,3 7,7 9,8 8 4 14 8 E 1016,2 10 0,0
22.04.2018 02:00:00 14,4 8,1 9,6 9 5 22 12 E 1016,6 10 0,0
22.04.2018 01:00:00 11,1 9,3 9,3 5 3 11 6 NE 1017,2 10 0,0
22.04.2018 00:00:00 11,5 9,3 9,7 8 4 14 8 E 1017,9 10 0,0
21.04.2018 23:00:00 12,5 9,6 10,2 9 5 14 8 ENE 1018,3 10 0,0
21.04.2018 22:00:00 13,3 9,2 11,2 11 6 18 10 ENE 1018,7 10 0,0
21.04.2018 21:00:00 15,9 9,6 12,9 11 6 18 10 NE 1018,7 10 0,0
21.04.2018 20:00:00 18,8 11,4 16,4 11 6 18 10 NE 1018,9 33 0,0
21.04.2018 19:00:00 20,1 12,3 18,9 14 8 18 10 NE 1019,1 39 0,0
21.04.2018 18:00:00 21,1 10,3 20,9 11 6 18 10 NE 1019,6 34 0,0
21.04.2018 17:00:00 21,2 10,6 21,8 14 8 22 12 NE 1020,3 29 0,0
21.04.2018 16:00:00 21,0 11,3 22,6 11 6 22 12 NE 1020,9 25 0,0
21.04.2018 15:00:00 20,3 9,5 22,6 11 6 22 12 NE 1021,7 10 0,0
21.04.2018 14:00:00 19,8 9,9 22,9 13 7 18 10 NE 1022,2 10 0,0
21.04.2018 13:00:00 18,7 10,3 21,6 13 7 25 14 ENE 1022,6 10 0,0
21.04.2018 12:00:00 17,8 10,6 20,6 13 7 22 12 NE 1023,1 10 0,0
21.04.2018 11:00:00 16,4 10,6 18,3 11 6 22 12 NE 1023,5 10 0,0
21.04.2018 10:00:00 14,8 11,4 16,2 15 8 18 10 E 1023,3 10 0,0
21.04.2018 09:00:00 13,0 11,0 13,7 8 4 14 8 ENE 1023,2 8 0,0
21.04.2018 08:00:00 10,1 9,5 8,6 4 2 7 4 N 1023,2 4,3 0,0
21.04.2018 07:00:00 8,0 8,0 6,2 4 2 7 4 NNE 1022,9 3,1 0,0
21.04.2018 06:00:00 8,2 8,1 6,4 4 2 7 4 NNW 1022,5 1,7 0,0
21.04.2018 05:00:00 8,6 8,3 7,2 4 2 7 4 NNW 1022,8 3,2 0,0
21.04.2018 04:00:00 9,1 8,2 7,9 4 2 7 4 N 1022,7 4,8 0,0
21.04.2018 03:00:00 9,1 8,2 7,9 7 4 14 8 NNW 1022,8 2,8 0,0
21.04.2018 02:00:00 9,9 8,4 8,3 5 3 11 6 N 1022,9 2,9 0,0
21.04.2018 01:00:00 10,2 8,2 8,7 2 1 11 6 - 1022,8 3,1 0,0
21.04.2018 00:00:00 10,1 8,4 9,0 5 3 7 4 NNW 1022,9 3,0 0,0
20.04.2018 23:00:00 10,1 8,5 9,6 5 3 11 6 NNW 1023,0 3,3 0,0
20.04.2018 22:00:00 10,6 8,9 10,1 5 3 14 8 NW 1022,9 4,4 0,0
20.04.2018 21:00:00 11,6 9,7 11,1 13 7 18 10 W 1022,6 3,9 0,0
20.04.2018 20:00:00 15,7 11,5 15,9 14 8 18 10 W 1022,0 7 0,0
20.04.2018 19:00:00 17,8 12,2 19,7 13 7 22 12 W 1022,1 8 0,0
20.04.2018 18:00:00 20,2 12,6 23,4 18 10 25 14 WNW 1022,2 10 0,0
20.04.2018 17:00:00 22,4 12,7 25,2 14 8 22 12 W 1022,2 18 0,0
20.04.2018 16:00:00 23,0 10,7 26,5 14 8 25 14 W 1022,4 24 0,0
20.04.2018 15:00:00 23,1 12,6 25,6 18 10 25 14 W 1022,7 16 0,0
20.04.2018 14:00:00 23,7 13,6 25,3 16 9 25 14 W 1022,7 10 0,0
20.04.2018 13:00:00 24,1 14,6 23,1 13 7 22 12 W 1022,8 10 0,0
20.04.2018 12:00:00 23,6 14,7 24,5 9 5 18 10 WNW 1022,7 10 0,0
20.04.2018 11:00:00 23,0 14,8 23,2 11 6 14 8 W 1022,5 10 0,0
20.04.2018 10:00:00 21,6 15,6 20,7 5 3 7 4 SW 1022,2 9 0,0
20.04.2018 09:00:00 19,2 12,7 17,7 0 0 7 4 N 1022,4 6 0,0
20.04.2018 08:00:00 15,9 12,2 9,5 4 2 18 10 SSW 1022,5 7 0,0
20.04.2018 07:00:00 14,4 9,9 7,9 4 2 7 4 SSW 1022,2 8 0,0
20.04.2018 06:00:00 14,1 9,3 7,8 8 4 11 6 SSW 1022,2 7 0,0
20.04.2018 05:00:00 13,2 10,6 7,8 0 0 4 2 N 1022,4 8 0,0
20.04.2018 04:00:00 13,7 10,7 7,7 4 2 7 4 S 1022,8 8 0,0
20.04.2018 03:00:00 13,1 11,6 8,3 4 2 4 2 S 1022,9 8 0,0
20.04.2018 02:00:00 13,5 11,7 8,8 2 1 4 2 SE 1023,3 8 0,0
20.04.2018 01:00:00 14,1 11,4 9,4 4 2 4 2 SSE 1023,4 9 0,0
20.04.2018 00:00:00 15,2 10,9 9,8 4 2 7 4 SSE 1023,4 10 0,0
19.04.2018 23:00:00 14,9 12,5 10,4 4 2 4 2 N 1023,7 10 0,0
19.04.2018 22:00:00 16,7 10,5 11,2 4 2 7 4 - 1024,0 10 0,0
19.04.2018 21:00:00 18,6 12,0 13,0 4 2 7 4 NNE 1023,6 13 0,0
19.04.2018 20:00:00 20,1 12,0 17,2 7 4 14 8 N 1023,3 14 0,0
19.04.2018 19:00:00 22,6 11,1 21,5 9 5 22 12 NNW 1023,6 10 0,0
19.04.2018 18:00:00 24,8 14,3 24,5 11 6 25 14 - 1023,6 10 0,0
19.04.2018 17:00:00 27,2 10,5 25,3 15 8 29 16 ESE 1023,7 10 0,0
19.04.2018 16:00:00 26,7 11,7 25,6 16 9 29 16 SE 1024,1 10 0,0
19.04.2018 15:00:00 26,9 10,3 26,0 16 9 25 14 ESE 1024,7 10 0,0
19.04.2018 14:00:00 26,1 8,7 24,9 15 8 25 14 S 1025,2 10 0,0
19.04.2018 13:00:00 24,9 10,2 24,5 15 8 29 16 SSE 1025,7 10 0,0
19.04.2018 12:00:00 24,0 10,9 23,0 15 8 25 14 SE 1026,1 10 0,0
19.04.2018 11:00:00 22,6 10,6 21,6 16 9 25 14 SSE 1026,3 10 0,0
19.04.2018 10:00:00 20,4 10,9 19,9 11 6 14 8 E 1026,6 16 0,0
19.04.2018 09:00:00 18,0 10,5 16,4 8 4 18 10 ESE 1026,8 10 0,0
19.04.2018 08:00:00 15,5 9,9 11,5 11 6 14 8 E 1026,7 10 0,0
19.04.2018 07:00:00 13,1 9,2 8,3 7 4 14 8 E 1026,5 11 0,0
19.04.2018 06:00:00 14,0 9,2 10,1 11 6 14 8 ESE 1026,6 10 0,0
19.04.2018 05:00:00 14,3 9,3 10,2 11 6 14 8 ESE 1026,8 11 0,0
19.04.2018 04:00:00 15,4 9,5 11,4 11 6 18 10 E 1027,0 11 0,0
19.04.2018 03:00:00 16,4 9,4 11,8 15 8 25 14 ESE 1027,1 10 0,0
19.04.2018 02:00:00 16,3 9,6 11,9 15 8 25 14 E 1027,6 10 0,0
19.04.2018 01:00:00 15,6 9,6 9,3 11 6 14 8 E 1028,1 10 0,0
19.04.2018 00:00:00 13,8 10,1 8,9 9 5 14 8 ENE 1028,5 10 0,0
18.04.2018 23:00:00 15,8 10,3 9,6 5 3 14 8 NE 1028,7 10 0,0
18.04.2018 22:00:00 15,9 10,2 11,0 11 6 18 10 E 1028,4 10 0,0
18.04.2018 21:00:00 16,5 10,6 12,8 13 7 18 10 ENE 1028,3 10 0,0
18.04.2018 20:00:00 19,1 11,3 16,7 13 7 22 12 E 1028,3 10 0,0
18.04.2018 19:00:00 21,9 9,9 20,3 13 7 22 12 E 1028,4 10 0,0
18.04.2018 18:00:00 22,6 9,7 22,0 15 8 22 12 E 1028,8 10 0,0
18.04.2018 17:00:00 22,9 9,7 23,0 11 6 22 12 ESE 1029,2 10 0,0
18.04.2018 16:00:00 23,2 10,8 24,0 8 4 22 12 E 1029,5 10 0,0
18.04.2018 15:00:00 23,1 10,0 23,5 11 6 25 14 SSE 1030,1 10 0,0
18.04.2018 14:00:00 22,5 8,2 23,2 13 7 22 12 SSE 1030,4 10 0,0
18.04.2018 13:00:00 21,8 10,8 22,8 9 5 25 14 SSE 1030,8 10 0,0
18.04.2018 12:00:00 20,8 11,7 21,9 9 5 25 14 S 1031,1 10 0,0
18.04.2018 11:00:00 19,1 10,6 20,1 9 5 25 14 S 1030,9 10 0,0
18.04.2018 10:00:00 17,7 9,7 17,6 8 4 11 6 SSW 1030,7 10 0,0
18.04.2018 09:00:00 15,0 9,5 13,3 9 5 14 8 S 1030,3 10 0,0
18.04.2018 08:00:00 13,3 9,4 8,5 8 4 25 14 SSE 1029,9 10 0,0
18.04.2018 07:00:00 11,9 7,7 5,0 8 4 11 6 SSE 1029,3 10 0,0
18.04.2018 06:00:00 11,9 7,6 5,2 8 4 14 8 S 1028,8 10 0,0
18.04.2018 05:00:00 11,1 7,3 5,7 11 6 18 10 S 1028,4 10 0,0
18.04.2018 04:00:00 11,3 7,7 5,2 11 6 14 8 S 1028,0 10 0,0
18.04.2018 03:00:00 11,3 7,7 5,4 9 5 14 8 S 1027,7 10 0,0
18.04.2018 02:00:00 11,4 8,0 5,6 11 6 14 8 S 1027,5 10 0,0
18.04.2018 01:00:00 11,0 8,2 6,0 9 5 14 8 S 1027,3 10 0,0
18.04.2018 00:00:00 13,0 8,1 6,5 8 4 14 8 S 1026,9 10 0,0
17.04.2018 23:00:00 13,4 8,5 7,0 9 5 14 8 S 1026,7 10 0,0
17.04.2018 22:00:00 15,0 8,4 7,8 5 3 11 6 S 1026,2 10 0,0
17.04.2018 21:00:00 15,4 8,3 10,8 9 5 22 12 S 1025,4 10 0,0
17.04.2018 20:00:00 17,5 8,6 14,4 15 8 32 18 S 1024,9 10 0,0
17.04.2018 19:00:00 18,4 8,2 17,2 16 9 32 18 S 1024,4 10 0,0
17.04.2018 18:00:00 18,6 9,2 18,9 18 10 36 19 WSW 1024,6 10 0,0
17.04.2018 17:00:00 18,8 8,3 19,4 22 12 36 19 SW 1024,4 10 0,0
17.04.2018 16:00:00 18,7 8,8 19,7 18 10 36 19 SSW 1024,3 10 0,0
17.04.2018 15:00:00 18,1 7,9 19,2 22 12 36 19 SSW 1024,1 10 0,0
17.04.2018 14:00:00 17,6 7,7 18,4 26 14 40 21 S 1023,9 10 0,0
17.04.2018 13:00:00 17,6 8,0 18,3 29 16 43 23 SSW 1024,1 10 0,0
17.04.2018 12:00:00 16,7 8,0 17,8 26 14 36 19 S 1024,2 10 0,0
17.04.2018 11:00:00 15,2 8,6 15,3 21 11 29 16 S 1024,0 10 0,0
17.04.2018 10:00:00 13,9 8,1 14,0 21 11 29 16 S 1023,7 10 0,0
17.04.2018 09:00:00 12,1 7,3 10,9 16 9 36 19 SSE 1023,6 10 0,0
17.04.2018 08:00:00 10,8 5,3 8,6 18 10 29 16 SSE 1022,6 10 0,0
17.04.2018 07:00:00 9,1 5,2 5,7 13 7 18 10 S 1022,9 10 0,0
17.04.2018 06:00:00 9,3 4,8 5,5 9 5 22 12 S 1021,8 10 0,0
17.04.2018 05:00:00 8,7 5,1 5,6 13 7 18 10 S 1021,6 10 0,0
17.04.2018 04:00:00 7,9 4,9 3,3 9 5 14 8 SSE 1021,7 10 0,0
17.04.2018 03:00:00 8,0 5,2 4,0 11 6 14 8 S 1021,5 10 0,0

tt = Température de l'air
td = dewpoint
tt 5cm = Température de l'air 5cm
ff = Vitesse du vent
fx = gusts
dd = Direction du vent
ppp = reduced air pressure
vv = visibility
rr = Quantités de précipitations

stations d'obs. à proximité